Location: Chervonnoye
(48.6000°N, 34.4000°E)
Time: 12:35:19
(UTC+00:00)

deb Kosmos-2237 - Pass Details

Date: 24 June 2021
Orbit: 850 x 1045 km, 71.0° (Epoch: 25 July)

Event Time Altitude Azimuth Distance (km) Brightness Sun altitude
Rises 23:43:18 0° 328° (NNW) 3,769 ? -13.3°
Reaches altitude 10° 23:47:42 10° 355° (N) 2,845 ? -13.0°
Maximum altitude 23:50:39 13° 22° (NNE) 2,633 ? -12.7°
Drops below altitude 10° 23:53:37 10° 48° (NE) 2,862 ? -12.5°
Sets 23:58:03 0° 75° (ENE) 3,813 ? -12.1°
